Weather History for Imperial, CA

Change the Weather History Date:

Wednesday, September 5, 2012

  Actual Average Record
Temperature  
Mean Temperature 93 °F -  
Max Temperature 104 °F 103 °F 112 °F (1955)
Min Temperature 84 °F 75 °F 62 °F (1961)
Cooling Degree Days 28    
Growing Degree Days 43 (Base 50)    
Moisture  
Dew Point 67 °F    
Average Humidity 49    
Maximum Humidity 80    
Minimum Humidity 20    
Precipitation  
Precipitation 0.00 in - - ()
Sea Level Pressure  
Sea Level Pressure 29.81 in    
Wind  
Wind Speed 6 mph (SW)    
Max Wind Speed 12 mph    
Max Gust Speed -    
Visibility 10 miles    
Events      
Averages and records for this station are not official NWS values.
T = Trace of Precipitation, MM = Missing Value Source: NWS Daily Summary

Daily Weather History Graph

Daily Weather History Graph

Search for Another Location

Airport:

Trip Planner

Search our weather history database for the weather conditions in past years. The results will help you decide how hot, cold, wet, or windy it might be!

Date:

Astronomy

Sep. 05, 2012 Rise Set
Actual Time 6:19 AM PDT 7:01 PM PDT
Civil Twilight 5:54 AM PDT 7:26 PM PDT
Nautical Twilight 5:25 AM PDT 7:55 PM PDT
Astronomical Twilight 4:55 AM PDT 8:25 PM PDT
Moon 9:54 PM PDT (9/5) 11:07 AM PDT (9/5)
Length of Visible Light 13h 31m
Length of Day
12h 41m
Waning Gibbous, 75% of the Moon is Illuminated
Sep 5
Waning Gibbous
Sep 8
Last Quarter
Sep 15
New
Sep 22
First Quarter
Sep 29
Full

Hourly Weather History & Observations

Time (PDT) Temp. Heat Index Dew Point Humidity Pressure Visibility Wind Dir Wind Speed Gust Speed Precip Events Conditions
12:53 AM 86.0 °F 95.1 °F 75.0 °F 70% 29.86 in 10.0 mi East 4.6 mph - N/A   Clear
1:53 AM 86.0 °F 96.9 °F 77.0 °F 74% 29.86 in 10.0 mi SE 9.2 mph - N/A   Clear
2:53 AM 86.0 °F 98.3 °F 78.1 °F 77% 29.84 in 10.0 mi SSE 6.9 mph - N/A   Clear
3:53 AM 84.9 °F 96.6 °F 78.1 °F 80% 29.83 in 10.0 mi ESE 4.6 mph - N/A   Clear
4:53 AM 84.9 °F 96.6 °F 78.1 °F 80% 29.83 in 10.0 mi SSE 3.5 mph - N/A   Clear
5:53 AM 84.0 °F 93.7 °F 77.0 °F 79% 29.83 in 10.0 mi Calm Calm - N/A   Clear
6:53 AM 84.0 °F 93.7 °F 77.0 °F 79% 29.86 in 10.0 mi ESE 4.6 mph - N/A   Clear
7:53 AM 86.0 °F 98.3 °F 78.1 °F 77% 29.87 in 10.0 mi SSE 8.1 mph - N/A   Clear
8:53 AM 89.1 °F 103.2 °F 78.1 °F 70% 29.88 in 10.0 mi South 4.6 mph - N/A   Clear
9:53 AM 91.0 °F 102.9 °F 75.9 °F 61% 29.88 in 10.0 mi SW 4.6 mph - N/A   Clear
10:53 AM 93.0 °F 100.1 °F 71.1 °F 49% 29.88 in 10.0 mi Variable 3.5 mph - N/A   Clear
11:53 AM 96.1 °F 102.9 °F 70.0 °F 43% 29.86 in 10.0 mi West 5.8 mph - N/A   Clear
12:53 PM 99.0 °F 103.5 °F 66.9 °F 35% 29.83 in 10.0 mi WNW 5.8 mph - N/A   Clear
1:53 PM 100.9 °F 105.3 °F 66.0 °F 32% 29.80 in 10.0 mi Variable 4.6 mph - N/A   Partly Cloudy
2:53 PM 102.0 °F 107.3 °F 66.9 °F 32% 29.78 in 10.0 mi Variable 3.5 mph - N/A   Clear
3:53 PM 102.9 °F 108.3 °F 66.9 °F 31% 29.75 in 10.0 mi NNW 5.8 mph - N/A   Clear
4:53 PM 102.9 °F 106.8 °F 64.9 °F 29% 29.74 in 10.0 mi WNW 4.6 mph - N/A   Clear
5:53 PM 102.0 °F 105.9 °F 64.9 °F 30% 29.73 in 10.0 mi WSW 4.6 mph - N/A   Clear
6:53 PM 99.0 °F 102.9 °F 66.0 °F 34% 29.73 in 10.0 mi West 4.6 mph - N/A   Clear
7:53 PM 93.9 °F - 48.0 °F 21% 29.75 in 10.0 mi West 10.4 mph - N/A   Clear
8:53 PM 91.9 °F - 45.0 °F 20% 29.78 in 10.0 mi West 11.5 mph - N/A   Clear
9:53 PM 90.0 °F - 46.9 °F 23% 29.79 in 10.0 mi WSW 9.2 mph - N/A   Clear
10:53 PM 86.0 °F - 50.0 °F 29% 29.78 in 10.0 mi West 9.2 mph - N/A   Clear
11:53 PM 87.8 °F - 48.2 °F 25% 29.78 in 10.0 mi WSW 6.9 mph - N/A   Clear